Location: *
(45.1961°N, 1.9694°E)
Time: 14:32:48
(UTC+00:00)

Abrixas rocket - Pass Details

Date: 25 August 2019
Orbit: 364 x 371 km, 48.4° (Epoch: 18 September)

Event Time Altitude Azimuth Distance (km) Brightness Sun altitude
Rises 19:25:44 0° 274° (W) 2,217 7.5 -7.9°
Reaches altitude 10° 19:27:50 10° 281° (W) 1,370 6.4 -8.3°
Maximum altitude 19:30:48 44° 356° (N) 526 3.0 -8.8°
Drops below altitude 10° 19:33:46 10° 70° (ENE) 1,376 4.5 -9.2°
Enters shadow 19:34:16 - 72° (ENE) 1,570 4.7 -9.3°
